EW8839 Weather Reports


time (UTC)temp
C
wind
direction
speed
KPH
gust
KPH
rain 1hr
cm
rain 24hr
cm
rain mn
cm
humidity
%
barometer
mb
20260510224542 19 306 0.0 0.0 0.00 0.00 0.00 80 1011.4
20260510224053 20 306 0.0 0.0 0.00 0.00 0.00 80 1011.4
20260510223551 20 306 0.0 0.0 0.00 0.00 0.00 79 1011.4
20260510223100 20 303 0.0 0.0 0.00 0.00 0.00 79 1011.6
20260510222557 20 302 0.0 3.2 0.00 0.00 0.00 80 1011.6
20260510222008 20 303 0.0 4.8 0.00 0.00 0.00 79 1011.4
20260510221517 20 303 0.0 4.8 0.00 0.00 0.00 78 1011.3
20260510221028 20 291 0.0 8.0 0.00 0.00 0.00 77 1011.4
20260510220541 21 302 0.0 8.0 0.00 0.00 0.00 74 1011.5
20260510220053 21 309 0.0 4.8 0.00 0.00 0.00 72 1011.8
20260510215604 21 308 0.0 4.8 0.00 0.00 0.00 70 1011.8
20260510215015 22 302 0.0 4.8 0.00 0.00 0.00 68 1011.6
20260510214524 22 299 0.0 4.8 0.00 0.00 0.00 66 1011.3
20260510214037 23 303 0.0 4.8 0.00 0.00 0.00 63 1011.3
20260510213535 23 280 0.0 3.2 0.00 0.00 0.00 60 1011.2
20260510213048 24 261 0.0 3.2 0.00 0.00 0.00 60 1011.0
20260510212558 24 252 0.0 3.2 0.00 0.00 0.00 59 1010.9
20260510212055 24 253 0.0 0.0 0.00 0.00 0.00 60 1010.7
20260510211506 24 253 0.0 3.2 0.00 0.00 0.00 59 1010.7
20260510211105 24 253 0.0 3.2 0.00 0.00 0.00 59 1010.5
20260510210601 24 253 0.0 0.0 0.00 0.00 0.00 60 1010.5
20260510210008 24 254 0.0 0.0 0.00 0.00 0.00 59 1010.5
20260510205503 24 251 0.0 1.6 0.00 0.00 0.00 59 1010.4
20260510205014 24 251 0.0 0.0 0.00 0.00 0.00 60 1010.4
20260510204541 23 251 0.0 0.0 0.00 0.00 0.00 59 1010.3
20260510204035 23 251 0.0 1.6 0.00 0.00 0.00 60 1010.4
20260510203546 23 251 0.0 1.6 0.00 0.00 0.00 59 1010.5
20260510203058 23 262 0.0 0.0 0.00 0.00 0.00 60 1010.5
20260510202507 23 263 0.0 1.6 0.00 0.00 0.00 60 1010.5
20260510202017 23 263 0.0 3.2 0.00 0.00 0.00 59 1010.5
20260510201525 23 263 0.0 9.7 0.00 0.00 0.00 60 1010.6
20260510201039 23 263 0.0 9.7 0.00 0.00 0.00 60 1010.7
20260510200548 23 267 0.0 4.8 0.00 0.00 0.00 60 1010.7
20260510200045 23 268 0.0 4.8 0.00 0.00 0.00 60 1010.7
20260510195555 23 268 0.0 6.4 0.00 0.00 0.00 58 1010.8
20260510195004 23 260 0.0 6.4 0.00 0.00 0.00 58 1010.8
20260510194515 24 280 0.0 6.4 0.00 0.00 0.00 56 1010.9
20260510194024 24 250 1.6 6.4 0.00 0.00 0.00 56 1010.9
20260510193537 25 232 0.0 4.8 0.00 0.00 0.00 53 1010.8
20260510193039 25 271 0.0 8.0 0.00 0.00 0.00 53 1010.9
20260510192538 25 246 0.0 8.0 0.00 0.00 0.00 52 1011.0
20260510192052 25 206 0.0 6.4 0.00 0.00 0.00 51 1011.0
20260510191506 25 236 1.6 6.4 0.00 0.00 0.00 51 1011.0
20260510191022 25 242 0.0 4.8 0.00 0.00 0.00 50 1011.0
20260510190538 25 277 0.0 6.4 0.00 0.00 0.00 50 1011.0
20260510190057 25 252 1.6 6.4 0.00 0.00 0.00 50 1011.0
20260510185555 25 195 1.6 17.7 0.00 0.00 0.00 48 1011.0
20260510185006 25 231 0.0 8.0 0.00 0.00 0.00 49 1010.9
20260510184522 25 249 1.6 9.7 0.00 0.00 0.00 49 1010.8
20260510184041 26 242 1.6 9.7 0.00 0.00 0.00 47 1010.9
20260510183554 26 256 1.6 6.4 0.00 0.00 0.00 46 1010.8
20260510183008 26 201 0.0 11.3 0.00 0.00 0.00 48 1010.8
20260510182523 27 150 3.2 9.7 0.00 0.00 0.00 47 1010.9
20260510182039 27 188 1.6 8.0 0.00 0.00 0.00 46 1010.9
20260510181556 27 187 1.6 6.4 0.00 0.00 0.00 49 1010.8
20260510181056 26 157 1.6 6.4 0.00 0.00 0.00 49 1010.9
20260510180508 26 265 0.0 9.7 0.00 0.00 0.00 48 1010.9
20260510180022 26 225 0.0 9.7 0.00 0.00 0.00 48 1011.0
20260510175536 26 229 1.6 6.4 0.00 0.00 0.00 49 1011.0
20260510175052 26 208 0.0 6.4 0.00 0.00 0.00 47 1011.0
20260510174553 26 204 0.0 6.4 0.00 0.00 0.00 50 1010.9
20260510174004 25 229 0.0 4.8 0.00 0.00 0.00 51 1010.8
20260510173519 25 283 0.0 9.7 0.00 0.00 0.00 51 1010.8
20260510173035 25 263 0.0 9.7 0.00 0.00 0.00 52 1010.9
20260510172551 25 232 0.0 8.0 0.00 0.00 0.00 52 1011.0
20260510172051 25 174 0.0 6.4 0.00 0.00 0.00 55 1011.0
20260510171556 24 209 0.0 6.4 0.00 0.00 0.00 54 1011.0
20260510171006 25 254 0.0 6.4 0.00 0.00 0.00 54 1011.2
20260510170522 24 306 0.0 9.7 0.00 0.00 0.00 54 1011.2
20260510170043 24 288 0.0 9.7 0.00 0.00 0.00 54 1011.1
20260510165555 25 192 1.6 6.4 0.00 0.00 0.00 53 1011.1
20260510165009 25 236 0.0 1.6 0.00 0.00 0.00 57 1011.2
20260510164513 24 141 0.0 1.6 0.00 0.00 0.00 59 1011.1
20260510164021 23 223 0.0 1.6 0.00 0.00 0.00 60 1011.2
20260510163537 23 221 0.0 1.6 0.00 0.00 0.00 61 1011.2
20260510163057 23 218 0.0 1.6 0.00 0.00 0.00 60 1011.2
20260510162555 23 233 0.0 4.8 0.00 0.00 0.00 60 1011.3
20260510162055 23 233 0.0 4.8 0.00 0.00 0.00 61 1011.3
20260510161510 23 150 0.0 3.2 0.00 0.00 0.00 63 1011.2
20260510161026 22 144 0.0 3.2 0.00 0.00 0.00 65 1011.3
20260510160540 22 140 0.0 3.2 0.00 0.00 0.00 66 1011.4
20260510160054 22 246 0.0 1.6 0.00 0.00 0.00 68 1011.5
20260510155555 22 221 0.0 3.2 0.00 0.00 0.00 68 1011.6
20260510155057 21 219 0.0 3.2 0.00 0.00 0.00 68 1011.7
20260510154509 21 231 0.0 6.4 0.00 0.00 0.00 73 1011.8
20260510154026 21 231 0.0 6.4 0.00 0.00 0.00 72 1011.9
20260510153538 21 338 0.0 4.8 0.00 0.00 0.00 72 1011.8
20260510153054 21 338 0.0 3.2 0.00 0.00 0.00 74 1011.8
20260510152556 20 305 0.0 4.8 0.00 0.00 0.00 74 1011.8
20260510152009 20 279 0.0 1.6 0.00 0.00 0.00 76 1011.8
20260510151523 20 231 0.0 3.2 0.00 0.00 0.00 77 1011.8
20260510151040 20 232 0.0 3.2 0.00 0.00 0.00 78 1011.8
20260510150556 19 231 0.0 0.0 0.00 0.00 0.00 81 1011.8
20260510150008 18 231 0.0 0.0 0.00 0.00 0.00 81 1011.8
20260510145526 18 231 0.0 0.0 0.00 0.00 0.00 82 1011.9
20260510145041 17 231 0.0 0.0 0.00 0.00 0.00 85 1011.8
20260510144608 17 231 0.0 0.0 0.00 0.00 0.00 87 1011.9
20260510144059 17 231 0.0 0.0 0.00 0.00 0.00 90 1012.0
20260510143601 16 231 0.0 1.6 0.00 0.00 0.00 91 1011.9
20260510143013 16 231 0.0 1.6 0.00 0.00 0.00 93 1012.0
20260510142530 15 305 0.0 1.6 0.00 0.00 0.00 95 1011.9
20260510142044 15 331 0.0 0.0 0.00 0.00 0.00 97 1012.0
20260510141545 15 331 0.0 0.0 0.00 0.00 0.00 97 1012.1
20260510141046 14 305 0.0 0.0 0.00 0.00 0.00 97 1012.0
20260510140558 13 306 0.0 0.0 0.00 0.00 0.00 98 1012.0
20260510140011 13 306 0.0 1.6 0.00 0.00 0.00 97 1011.9
20260510135523 13 306 0.0 1.6 0.00 0.00 0.00 98 1011.9
20260510135040 13 306 0.0 1.6 0.00 0.00 0.00 98 1011.9
20260510134604 13 306 0.0 1.6 0.00 0.00 0.00 98 1011.9
20260510134057 13 306 0.0 0.0 0.00 0.00 0.00 98 1011.9
20260510133511 12 306 0.0 0.0 0.00 0.00 0.00 97 1012.0
20260510133027 12 306 0.0 0.0 0.00 0.00 0.00 98 1012.1
20260510132543 12 306 0.0 0.0 0.00 0.00 0.00 97 1012.1
20260510132059 12 306 0.0 1.6 0.00 0.00 0.00 97 1012.1
20260510131519 12 306 0.0 1.6 0.00 0.00 0.00 97 1012.1
20260510131026 12 306 0.0 0.0 0.00 0.00 0.00 98 1012.1
20260510130528 12 306 0.0 0.0 0.00 0.00 0.00 97 1012.0
20260510130042 11 305 0.0 0.0 0.00 0.00 0.00 97 1011.9
20260510125557 11 306 0.0 0.0 0.00 0.00 0.00 97 1011.9
20260510125012 11 306 0.0 1.6 0.00 0.00 0.00 97 1011.9
20260510124528 11 306 0.0 0.0 0.00 0.00 0.00 97 1011.9
20260510124044 11 330 0.0 4.8 0.00 0.00 0.00 97 1011.7
20260510123559 11 329 0.0 4.8 0.00 0.00 0.00 97 1011.8
20260510123101 11 23 0.0 0.0 0.00 0.00 0.00 97 1011.8
20260510122603 11 23 0.0 0.0 0.00 0.00 0.00 97 1011.6
20260510122102 11 23 0.0 0.0 0.00 0.00 0.00 97 1011.5
20260510121515 11 23 0.0 0.0 0.00 0.00 0.00 97 1011.6
20260510121034 11 23 0.0 1.6 0.00 0.00 0.00 97 1011.6
20260510120551 11 23 0.0 1.6 0.00 0.00 0.00 97 1011.5
20260510120103 11 23 0.0 1.6 0.00 0.00 0.00 97 1011.4
20260510115503 11 23 0.0 0.0 0.00 0.00 0.00 97 1011.5
20260510115002 11 22 0.0 1.6 0.00 0.00 0.00 97 1011.3
20260510114516 11 23 0.0 1.6 0.00 0.00 0.00 97 1011.3
20260510114034 11 23 0.0 1.6 0.00 0.00 0.00 97 1011.2
20260510113548 11 23 0.0 0.0 0.00 0.00 0.00 96 1011.2
20260510113054 11 23 0.0 1.6 0.00 0.00 0.00 97 1011.2
20260510112548 11 23 0.0 0.0 0.00 0.00 0.00 97 1011.2
20260510112001 11 23 0.0 0.0 0.00 0.00 0.00 96 1010.9
20260510111516 11 22 0.0 0.0 0.00 0.00 0.00 96 1010.8
20260510111030 11 23 0.0 0.0 0.00 0.00 0.00 97 1010.8
20260510110548 11 23 0.0 0.0 0.00 0.00 0.00 97 1010.9
20260510110101 11 23 0.0 0.0 0.00 0.00 0.00 97 1010.7
20260510105603 11 23 0.0 0.0 0.00 0.00 0.00 97 1010.6
20260510105102 11 23 0.0 0.0 0.00 0.00 0.00 97 1010.5
20260510104514 10 23 0.0 0.0 0.00 0.00 0.00 96 1010.5
20260510104029 10 23 0.0 0.0 0.00 0.00 0.00 96 1010.5
20260510103545 10 23 0.0 0.0 0.00 0.00 0.00 96 1010.5
20260510103101 10 23 0.0 0.0 0.00 0.00 0.00 96 1010.4
20260510102603 10 23 0.0 0.0 0.00 0.00 0.00 97 1010.5
20260510102103 10 23 0.0 0.0 0.00 0.00 0.00 97 1010.6
20260510101514 10 23 0.0 0.0 0.00 0.00 0.00 96 1010.7
20260510101030 10 23 0.0 0.0 0.00 0.00 0.00 96 1010.7
20260510100548 10 23 0.0 0.0 0.00 0.00 0.00 96 1010.6
20260510100048 10 23 0.0 0.0 0.00 0.00 0.00 96 1010.4
20260510095548 10 23 0.0 0.0 0.00 0.00 0.00 96 1010.5
20260510095048 10 23 0.0 0.0 0.00 0.00 0.00 96 1010.4
20260510094551 10 23 0.0 0.0 0.00 0.00 0.00 96 1010.4
20260510094051 10 23 0.0 3.2 0.00 0.00 0.00 96 1010.3
20260510093505 10 21 0.0 3.2 0.00 0.00 0.00 96 1010.3
20260510093026 10 21 0.0 1.6 0.00 0.00 0.00 96 1010.1
20260510092535 10 21 0.0 1.6 0.00 0.00 0.00 96 1010.0
20260510092050 9 21 0.0 0.0 0.00 0.00 0.00 96 1009.9
20260510091554 9 21 0.0 0.0 0.00 0.00 0.00 96 1009.7
20260510091054 9 21 0.0 0.0 0.00 0.00 0.00 96 1009.6
20260510090508 9 21 0.0 0.0 0.00 0.00 0.00 96 1009.5
20260510090027 9 21 0.0 0.0 0.00 0.00 0.00 96 1009.6
20260510085538 9 21 0.0 0.0 0.00 0.00 0.00 96 1009.6
20260510085057 9 21 0.0 0.0 0.00 0.00 0.00 96 1009.6
20260510084554 9 21 0.0 0.0 0.00 0.00 0.00 96 1009.6
20260510084054 9 21 0.0 0.0 0.00 0.00 0.00 96 1009.7
20260510083508 8 21 0.0 0.0 0.00 0.00 0.00 96 1009.6
20260510083022 8 21 0.0 0.0 0.00 0.00 0.00 96 1009.6
20260510082538 8 21 0.0 1.6 0.00 0.00 0.00 96 1009.6
20260510082055 8 21 0.0 1.6 0.00 0.00 0.00 96 1009.5
20260510081553 8 21 0.0 0.0 0.00 0.00 0.00 95 1009.5
20260510081007 8 21 0.0 0.0 0.00 0.00 0.00 95 1009.5
20260510080523 8 21 0.0 0.0 0.00 0.00 0.00 96 1009.4
20260510080041 8 21 0.0 0.0 0.00 0.00 0.00 96 1009.4
20260510075557 8 21 0.0 0.0 0.00 0.00 0.00 95 1009.3
20260510075007 8 21 0.0 0.0 0.00 0.00 0.00 95 1009.2
20260510074524 8 21 0.0 0.0 0.00 0.00 0.00 95 1009.1
20260510074040 8 21 0.0 0.0 0.00 0.00 0.00 95 1009.0
20260510073557 8 21 0.0 0.0 0.00 0.00 0.00 95 1009.0
20260510073116 8 21 0.0 0.0 0.00 0.00 0.00 95 1008.9
20260510072600 8 21 0.0 0.0 0.00 0.00 0.00 95 1008.8
20260510072017 8 21 0.0 0.0 0.00 0.00 0.00 95 1008.8
20260510071529 8 21 0.0 0.0 0.00 0.00 0.00 95 1008.9
20260510071044 8 21 0.0 0.0 0.00 0.00 0.00 95 1009.0
20260510070600 8 21 0.0 0.0 0.00 0.00 0.00 95 1008.9
20260510070012 8 21 0.0 0.0 0.00 0.00 0.00 95 1009.0
20260510065529 8 21 0.0 0.0 0.00 0.00 0.00 95 1009.0
20260510065029 8 21 0.0 0.0 0.00 0.00 0.00 95 1009.0
20260510064604 8 21 0.0 0.0 0.00 0.00 0.00 95 1009.0
20260510064100 8 21 0.0 0.0 0.00 0.00 0.00 95 1009.1
20260510063514 8 21 0.0 0.0 0.00 0.00 0.00 95 1009.0
20260510063029 8 21 0.0 0.0 0.00 0.00 0.00 95 1009.1
20260510062545 8 21 0.0 0.0 0.00 0.00 0.00 95 1009.1
20260510062048 8 21 0.0 0.0 0.00 0.00 0.00 95 1009.1
20260510061549 8 21 0.0 0.0 0.00 0.00 0.00 95 1009.1
20260510061002 8 21 0.0 0.0 0.00 0.00 0.00 95 1009.1
20260510060517 8 21 0.0 0.0 0.00 0.00 0.00 95 1009.1
20260510060037 8 21 0.0 0.0 0.00 0.00 0.00 95 1009.2
20260510055550 8 21 0.0 0.0 0.00 0.00 0.00 95 1009.2
20260510055003 9 21 0.0 0.0 0.00 0.00 0.00 94 1009.2
20260510054505 9 21 0.0 0.0 0.00 0.00 0.00 94 1009.3
20260510054022 9 21 0.0 0.0 0.00 0.00 0.00 95 1009.3
20260510053536 9 21 0.0 0.0 0.00 0.00 0.00 94 1009.4
20260510053053 9 21 0.0 0.0 0.00 0.00 0.00 94 1009.4
20260510052504 9 21 0.0 0.0 0.00 0.00 0.00 94 1009.4
20260510052019 9 21 0.0 0.0 0.00 0.00 0.00 94 1009.4
20260510051548 9 21 0.0 0.0 0.00 0.00 0.00 94 1009.4
20260510051051 9 21 0.0 0.0 0.00 0.00 0.00 94 1009.4
20260510050505 9 21 0.0 0.0 0.00 0.00 0.00 94 1009.5
20260510050004 9 21 0.0 0.0 0.00 0.00 0.00 94 1009.6
20260510045519 10 21 0.0 0.0 0.00 0.00 0.00 94 1009.6
20260510045034 10 21 0.0 0.0 0.00 0.00 0.00 94 1009.6
20260510044550 10 21 0.0 0.0 0.00 0.00 0.00 94 1009.6
20260510044003 10 21 0.0 0.0 0.00 0.00 0.00 94 1009.7
20260510043517 10 21 0.0 0.0 0.00 0.00 0.00 94 1009.7
20260510043033 10 21 0.0 0.0 0.00 0.00 0.00 94 1009.7
20260510042549 10 21 0.0 0.0 0.00 0.00 0.00 94 1009.7
20260510042003 10 21 0.0 0.0 0.00 0.00 0.00 94 1009.7
20260510041504 10 21 0.0 0.0 0.00 0.00 0.00 94 1009.7
20260510041018 10 21 0.0 0.0 0.00 0.00 0.00 94 1009.7
20260510040534 10 21 0.0 0.0 0.00 0.00 0.00 94 1009.7
20260510040050 10 21 0.0 0.0 0.00 0.00 0.00 94 1009.8
20260510035501 10 21 0.0 0.0 0.00 0.00 0.00 94 1009.7
20260510035020 10 21 0.0 0.0 0.00 0.00 0.00 94 1009.7
20260510034534 10 21 0.0 0.0 0.00 0.00 0.00 94 1009.7
20260510034050 10 21 0.0 0.0 0.00 0.00 0.00 94 1009.6
20260510033504 10 21 0.0 0.0 0.00 0.00 0.00 94 1009.4
20260510033004 10 21 0.0 0.0 0.00 0.00 0.00 94 1009.4
20260510032519 10 21 0.0 0.0 0.00 0.00 0.00 93 1009.3
20260510032034 10 21 0.0 0.0 0.00 0.00 0.00 93 1009.3
20260510031551 10 21 0.0 0.0 0.00 0.00 0.00 93 1009.3
20260510031004 10 21 0.0 0.0 0.00 0.00 0.00 93 1009.1
20260510030518 10 21 0.0 0.0 0.00 0.00 0.00 93 1009.1
20260510030033 10 21 0.0 0.0 0.00 0.00 0.00 93 1009.1
20260510025550 11 21 0.0 0.0 0.00 0.00 0.00 93 1009.2
20260510025005 11 21 0.0 0.0 0.00 0.00 0.00 93 1009.2
20260510024504 11 21 0.0 0.0 0.00 0.00 0.00 93 1009.3
20260510024020 11 21 0.0 0.0 0.00 0.00 0.00 93 1009.2
20260510023534 11 21 0.0 0.0 0.00 0.00 0.00 93 1009.2
20260510023050 11 21 0.0 0.0 0.00 0.00 0.00 93 1009.2
20260510022502 11 21 0.0 0.0 0.00 0.00 0.00 92 1009.3
20260510022020 11 21 0.0 0.0 0.00 0.00 0.00 92 1009.2
20260510021536 11 21 0.0 0.0 0.00 0.00 0.00 92 1009.2
20260510021052 11 21 0.0 0.0 0.00 0.00 0.00 92 1009.1
20260510020554 11 21 0.0 0.0 0.00 0.00 0.00 92 1009.1
20260510020055 11 21 0.0 0.0 0.00 0.00 0.00 92 1009.2
20260510015508 11 21 0.0 0.0 0.00 0.00 0.00 92 1009.2
20260510015025 11 21 0.0 0.0 0.00 0.00 0.00 92 1009.2
20260510014543 11 21 0.0 0.0 0.00 0.00 0.00 92 1009.2
20260510014058 11 21 0.0 0.0 0.00 0.00 0.00 92 1009.1
20260510013605 12 21 0.0 0.0 0.00 0.00 0.00 92 1009.2
20260510013135 12 21 0.0 0.0 0.00 0.00 0.00 91 1009.1
20260510012601 12 21 0.0 0.0 0.00 0.00 0.00 91 1009.1
20260510012014 12 21 0.0 0.0 0.00 0.00 0.00 91 1009.0
20260510011531 12 21 0.0 0.0 0.00 0.00 0.00 91 1009.0
20260510011048 12 21 0.0 0.0 0.00 0.00 0.00 91 1009.0
20260510010548 12 21 0.0 0.0 0.00 0.00 0.00 91 1009.0
20260510010051 12 21 0.0 0.0 0.00 0.00 0.00 91 1009.0
20260510005551 12 21 0.0 0.0 0.00 0.00 0.00 90 1008.9
20260510005008 12 21 0.0 0.0 0.00 0.00 0.00 90 1008.8
20260510004522 13 21 0.0 0.0 0.00 0.00 0.00 90 1008.9
20260510004038 13 21 0.0 0.0 0.00 0.00 0.00 89 1008.9
20260510003556 13 21 0.0 0.0 0.00 0.00 0.00 89 1008.8
20260510003105 13 21 0.0 0.0 0.00 0.00 0.00 89 1008.8
20260510002558 13 21 0.0 0.0 0.00 0.00 0.00 88 1008.9
20260510002008 13 21 0.0 0.0 0.00 0.00 0.00 87 1008.9
20260510001524 13 21 0.0 0.0 0.00 0.00 0.00 87 1008.8
20260510001039 14 21 0.0 0.0 0.00 0.00 0.00 87 1008.8
20260510000558 14 21 0.0 0.0 0.00 0.00 0.00 86 1008.8
20260510000123 14 21 0.0 0.0 0.00 0.00 0.00 86 1008.9
20260509235556 15 21 0.0 0.0 0.00 0.00 0.00 85 1008.8
20260509235010 15 21 0.0 0.0 0.00 0.00 0.00 84 1008.8
20260509234525 15 21 0.0 0.0 0.00 0.00 0.00 84 1008.7
20260509234042 15 21 0.0 0.0 0.00 0.00 0.00 84 1008.6
20260509233558 15 21 0.0 0.0 0.00 0.00 0.00 84 1008.6
20260509233013 15 21 0.0 0.0 0.00 0.00 0.00 84 1008.5
20260509232526 15 21 0.0 0.0 0.00 0.00 0.00 84 1008.3
20260509232041 15 21 0.0 0.0 0.00 0.00 0.00 84 1008.2
20260509231608 15 21 0.0 0.0 0.00 0.00 0.00 84 1008.2
20260509231057 15 21 0.0 0.0 0.00 0.00 0.00 85 1008.3
20260509230511 15 21 0.0 0.0 0.00 0.00 0.00 85 1008.4
20260509230026 15 21 0.0 0.0 0.00 0.00 0.00 85 1008.5
20260509225545 15 21 0.0 0.0 0.00 0.00 0.00 85 1008.6
20260509225058 15 21 0.0 0.0 0.00 0.00 0.00 84 1008.5